Date String (YYYY-MM-DD hh:mm:ss) UTC,Instrument flags,absolute air pressure of the measurement (hPa),sample flow rate (lpm),inlet stack bypass flow (lpm),air temperature of the measurement (°C),ambient temperature measured by the external sensor (°C),aerosol sample conditioner tube jacket temperature (°C),OPC LED temperature (°C),internal box temperature (°C),relative humidity of the measurement (%),span deviation,mass concentration of particles derived from Lorenz-Mie calculation of OPC scattering (μg/m³),mass concentration of particles derived from Lorenz-Mie calculation of OPC scattering (μg/m³),mass concentration of particles derived from Lorenz-Mie calculation of OPC scattering (μg/m³)
DateTimeUTC,F1_M11,P_M11,Q1_M11,Q2_M11,T1_M11,T2_M11,T3_M11,T4_M11,T5_M11,U1_M11,ZSPAN_M11,X0_M11,X2_M11,X1_M11
2023-12-21 01:00:00,SystemResetWarning,0830.0,5.00,000.00,026.0,025.0,000.0,034.4,027.4,12.1,0000.0,0013.07,0004.99,0004.12
2023-12-21 01:01:00,SystemResetWarning,0830.0,5.01,000.00,026.0,024.9,000.0,034.4,027.4,12.1,0000.0,0012.51,0004.94,0004.07
2023-12-21 01:02:00,SystemResetWarning,0830.0,4.99,000.00,026.0,024.9,000.0,034.4,027.4,12.0,-000.1,0013.22,0004.88,0004.03
2023-12-21 01:03:00,SystemResetWarning,0830.0,5.01,000.00,026.0,024.9,000.0,034.4,027.4,12.1,0000.2,0013.11,0004.86,0003.99
2023-12-21 01:04:00,SystemResetWarning,0830.0,5.00,000.00,026.0,024.9,000.0,034.4,027.3,12.1,0001.2,0012.92,0004.85,0003.96
2023-12-21 01:05:00,SystemResetWarning,0830.0,4.99,000.00,026.0,024.9,000.0,034.4,027.3,12.0,0001.6,0012.99,0004.91,0003.93
2023-12-21 01:06:00,SystemResetWarning,0830.0,4.99,000.00,026.0,024.9,000.0,034.4,027.4,12.0,0001.2,0013.43,0005.02,0003.91
2023-12-21 01:07:00,SystemResetWarning,0830.0,5.00,000.00,026.0,024.9,000.0,034.4,027.4,12.1,0000.7,0014.49,0005.09,0003.88
2023-12-21 01:08:00,SystemResetWarning,0830.0,5.01,000.00,026.0,024.9,000.0,034.3,027.4,12.0,0000.4,0015.61,0005.11,0003.85
2023-12-21 01:09:00,SystemResetWarning,0830.0,5.01,000.00,026.0,024.8,000.0,034.3,027.4,12.0,0000.2,0016.09,0005.08,0003.81
2023-12-21 01:10:00,SystemResetWarning,0830.0,4.99,000.00,026.0,024.8,000.0,034.3,027.3,12.0,0000.6,0015.64,0005.04,0003.79
2023-12-21 01:11:00,SystemResetWarning,0830.0,4.99,000.00,026.0,024.8,000.0,034.3,027.3,12.0,0001.1,0014.64,0005.04,0003.77
2023-12-21 01:12:00,SystemResetWarning,0830.0,5.00,000.00,025.9,024.8,000.0,034.3,027.3,11.9,0000.0,0015.10,0005.05,0003.74
2023-12-21 01:13:00,SystemResetWarning,0830.0,5.02,000.00,025.9,024.8,000.0,034.3,027.3,11.9,0000.7,0014.24,0005.03,0003.73
2023-12-21 01:14:00,SystemResetWarning,0830.0,4.98,000.00,025.9,024.8,000.0,034.3,027.3,11.8,0000.7,0014.20,0004.98,0003.71
2023-12-21 01:15:00,SystemResetWarning,0830.0,4.99,000.00,025.9,024.8,000.0,034.3,027.3,11.9,0000.0,0014.32,0004.91,0003.69
2023-12-21 01:16:00,SystemResetWarning,0830.0,5.01,000.00,025.9,024.8,000.0,034.3,027.3,11.8,0000.0,0013.85,0004.79,0003.66
2023-12-21 01:17:00,SystemResetWarning,0830.0,5.01,000.00,025.9,024.8,000.0,034.3,027.3,11.8,0000.0,0013.37,0004.64,0003.62
2023-12-21 01:18:00,SystemResetWarning,0830.0,5.00,000.00,025.9,024.8,000.0,034.3,027.2,11.9,0000.4,0012.53,0004.55,0003.61
2023-12-21 01:19:00,SystemResetWarning,0830.0,4.99,000.00,025.9,024.8,000.0,034.3,027.2,11.9,0003.9,0011.64,0004.50,0003.59
2023-12-21 01:20:00,SystemResetWarning,0830.0,5.00,000.00,025.9,024.8,000.0,034.3,027.3,11.9,0002.7,0011.87,0004.48,0003.58
2023-12-21 01:21:00,SystemResetWarning,0830.0,5.02,000.00,025.9,024.8,000.0,034.3,027.3,11.9,0000.6,0012.79,0004.46,0003.56
2023-12-21 01:22:00,SystemResetWarning,0830.0,5.00,000.00,025.9,024.7,000.0,034.3,027.3,11.9,0001.8,0012.76,0004.41,0003.55
2023-12-21 01:23:00,SystemResetWarning,0830.0,4.98,000.00,025.9,024.7,000.0,034.3,027.3,11.9,0001.7,0012.27,0004.41,0003.55
2023-12-21 01:24:00,SystemResetWarning,0830.0,5.00,000.00,025.9,024.7,000.0,034.3,027.2,11.9,0000.2,0012.56,0004.42,0003.54
2023-12-21 01:25:00,SystemResetWarning,0830.0,5.01,000.00,025.8,024.7,000.0,034.3,027.2,11.9,0000.0,0012.52,0004.43,0003.54
2023-12-21 01:26:00,SystemResetWarning,0830.0,5.01,000.00,025.8,024.7,000.0,034.2,027.2,11.9,0000.0,0012.16,0004.39,0003.52
2023-12-21 01:27:00,SystemResetWarning,0830.0,4.99,000.00,025.8,024.7,000.0,034.2,027.2,11.9,0000.0,0012.29,0004.35,0003.50
2023-12-21 01:28:00,SystemResetWarning,0830.0,5.01,000.00,025.8,024.7,000.0,034.2,027.2,12.0,0000.0,0012.44,0004.32,0003.48
2023-12-21 01:29:00,SystemResetWarning,0830.0,4.99,000.00,025.8,024.7,000.0,034.2,027.2,12.0,0000.0,0012.42,0004.31,0003.47
2023-12-21 01:30:00,SystemResetWarning,0830.0,5.00,000.00,025.8,024.7,000.0,034.2,027.1,12.0,0000.0,0012.11,0004.34,0003.46
2023-12-21 01:31:00,SystemResetWarning,0830.0,5.00,000.00,025.8,024.7,000.0,034.2,027.1,12.0,0000.0,0011.65,0004.33,0003.45
2023-12-21 01:32:00,SystemResetWarning,0830.0,5.00,000.00,025.8,024.7,000.0,034.2,027.1,12.0,0000.0,0011.02,0004.35,0003.44
2023-12-21 01:33:00,SystemResetWarning,0830.0,4.99,000.00,025.8,024.7,000.0,034.2,027.1,12.0,0000.0,0010.96,0004.36,0003.44
2023-12-21 01:34:00,SystemResetWarning,0830.0,5.02,000.00,025.8,024.7,000.0,034.2,027.1,12.0,0000.0,0010.74,0004.33,0003.43
2023-12-21 01:35:00,SystemResetWarning,0830.0,5.00,000.00,025.7,024.6,000.0,034.2,027.1,12.0,0000.0,0010.18,0004.30,0003.42
2023-12-21 01:36:00,SystemResetWarning,0830.0,4.98,000.00,025.7,024.6,000.0,034.2,027.1,12.0,0000.0,0010.47,0004.28,0003.39
2023-12-21 01:37:00,SystemResetWarning,0830.0,5.01,000.00,025.7,024.6,000.0,034.2,027.1,12.0,0000.0,0011.05,0004.31,0003.39
2023-12-21 01:38:00,SystemResetWarning,0830.0,5.01,000.00,025.7,024.6,000.0,034.1,027.0,12.0,0000.0,0011.90,0004.35,0003.40
2023-12-21 01:39:00,SystemResetWarning,0830.0,5.00,000.00,025.7,024.6,000.0,034.1,026.9,12.0,0000.0,0012.11,0004.37,0003.40
2023-12-21 01:40:00,SystemResetWarning,0830.1,5.00,000.00,025.7,024.6,000.0,034.1,027.0,12.0,0000.0,0013.73,0004.32,0003.40
2023-12-21 01:41:00,SystemResetWarning,0830.0,5.00,000.00,025.7,024.6,000.0,034.1,027.0,12.0,0000.0,0014.11,0004.26,0003.39
2023-12-21 01:42:00,SystemResetWarning,0830.0,5.00,000.00,025.7,024.6,000.0,034.1,027.0,12.0,0000.0,0014.16,0004.22,0003.38
2023-12-21 01:43:00,SystemResetWarning,0830.0,5.00,000.00,025.7,024.6,000.0,034.1,027.0,12.0,0000.0,0013.45,0004.19,0003.38
2023-12-21 01:44:00,SystemResetWarning,0830.0,5.00,000.00,025.7,024.5,000.0,034.1,026.9,12.0,0000.0,0014.10,0004.17,0003.36
2023-12-21 01:45:00,SystemResetWarning,0830.0,5.01,000.00,025.6,024.5,000.0,034.1,027.0,12.0,0000.0,0014.95,0004.12,0003.35
2023-12-21 01:46:00,SystemResetWarning,0830.0,5.01,000.00,025.6,024.5,000.0,034.1,026.9,12.0,0000.0,0015.41,0004.14,0003.33
2023-12-21 01:47:00,SystemResetWarning,0830.1,5.01,000.00,025.6,024.5,000.0,034.1,026.9,12.0,0000.0,0015.50,0004.14,0003.32
2023-12-21 01:48:00,SystemResetWarning,0830.0,5.00,000.00,025.6,024.5,000.0,034.1,026.9,12.0,0000.0,0015.73,0004.11,0003.31
2023-12-21 01:49:00,SystemResetWarning,0830.1,4.99,000.00,025.6,024.5,000.0,034.0,027.0,12.0,0000.0,0016.14,0004.07,0003.28
2023-12-21 01:50:00,SystemResetWarning,0830.0,4.99,000.00,025.6,024.5,000.0,034.0,027.0,12.0,0000.0,0016.31,0004.03,0003.25
2023-12-21 01:51:00,SystemResetWarning,0830.0,5.01,000.00,025.6,024.5,000.0,034.0,026.9,12.0,0000.0,0015.17,0004.01,0003.23
2023-12-21 01:52:00,SystemResetWarning,0830.0,5.01,000.00,025.6,024.5,000.0,034.0,026.9,12.0,0000.0,0014.98,0004.02,0003.22
2023-12-21 01:53:00,SystemResetWarning,0830.0,5.00,000.00,025.6,024.5,000.0,034.0,026.9,12.0,0000.0,0015.44,0004.01,0003.23
2023-12-21 01:54:00,SystemResetWarning,0830.0,4.98,000.00,025.6,024.5,000.0,034.0,026.9,12.0,0000.0,0015.70,0003.98,0003.21
2023-12-21 01:55:00,SystemResetWarning,0830.0,5.01,000.00,025.6,024.4,000.0,034.0,026.9,12.0,0000.0,0015.37,0003.97,0003.21
2023-12-21 01:56:00,SystemResetWarning,0830.0,5.02,000.00,025.6,024.4,000.0,034.0,026.9,12.0,0000.0,0014.73,0004.01,0003.21
2023-12-21 01:57:00,SystemResetWarning,0830.0,4.98,000.00,025.5,024.4,000.0,034.0,026.9,11.9,0000.0,0014.35,0003.98,0003.22
2023-12-21 01:58:00,SystemResetWarning,0830.0,5.01,000.00,025.5,024.4,000.0,034.0,026.9,11.9,0000.0,0014.29,0003.97,0003.23
2023-12-21 01:59:00,SystemResetWarning,0830.0,5.01,000.00,025.5,024.4,000.0,034.0,026.9,12.0,0000.0,0013.41,0003.95,0003.24
